Location: Duac?
(36.9744°N, 30.6500°E)
Time: 14:30:21
(UTC+00:00)

Cosmos 2344 - Pass Details

Date: 05 August 2024
Orbit: 1207 x 3035 km, 63.3° (Epoch: 11 September)

Event Time Altitude Azimuth Distance (km) Brightness Sun altitude
Exits shadow 21:05:56 25° 252° (WSW) 2,351 4.9 -34.7°
Maximum altitude 21:10:03 45° 310° (NW) 1,626 4.3 -34.9°
Drops below altitude 10° 21:16:58 10° 22° (NNE) 3,183 6.2 -35.3°
Sets 21:19:56 0° 29° (NNE) 4,221 6.9 -35.4°
